Home   Weather   Springfield   Past weeks

Flag for USA Past Weather in Springfield, Missouri, USA — Yesterday and Last 2 Weeks

Now
38 °F

Low clouds.


Feels Like: 30 °F
Forecast: 36 / 47 °F
Wind: 14 mph from Northwest

Location: Springfield Regional Airport

Current Time: Jan 23, 2017 at 2:41:24 am

Latest Report: Jan 23, 2017 at 1:52 am


Visibility: 8 mi

Pressure: 29.85 "Hg

Humidity: 90%

Dew Point: 35 °F

Location of SpringfieldLocation

Past Weather in Springfield — Graph

°F

Springfield Temperature Yesterday

Maximum temperature yesterday: 51 °F (at 12:52 am)
Minimum temperature yesterday: 36 °F (at 8:52 pm)
Average temperature yesterday: 46 °F

High & Low Weather Summary for the Past Weeks

 TemperatureHumidityPressure
High73 °F (Jan 11, 1:52 pm)100% (Jan 14, 12:02 am)30.69 "Hg (Jan 14, 12:02 am)
Low11 °F (Jan 8, 1:52 am)31% (Jan 10, 3:52 pm)29.40 "Hg (Jan 22, 5:52 am)
Average42 °F83%30.02 "Hg
* Reported Jan 8 12:52 am — Jan 23 12:52 am, Springfield, Weather by CustomWeather, © 2017

Note: Actual official high and low records may vary slightly from our data, if they occured in-between our weather recording intervals... More about our weather records

Advertising

Springfield Weather History for the Previous 24 Hours

Scroll right to see more
 ConditionsComfort  
Time TempWeatherWind HumidityBarometerVisibility
12:52 am
Mon, Jan 23
38 °FLow clouds.13 mph90%29.86 "Hg9 mi
11:52 pm
Sun, Jan 22
37 °FLow clouds.12 mph93%29.85 "Hg9 mi
10:52 pm37 °FLow clouds.9 mph93%29.85 "Hg9 mi
9:52 pm37 °FLow clouds.13 mph89%29.83 "Hg10 mi
8:52 pm36 °FLow clouds.17 mph92%29.80 "Hg9 mi
7:52 pm37 °FLow clouds.22 mph93%29.78 "Hg9 mi
6:52 pm41 °FLight rain. Mostly cloudy.22 mph93%29.70 "Hg9 mi
5:52 pm43 °FRain. Fog.18 mph93%29.67 "Hg6 mi
5:35 pm43 °FRain. Mostly cloudy.23 mph89%29.67 "Hg7 mi
5:20 pm44 °FRain. Fog.18 mph89%29.66 "Hg5 mi
5:01 pm44 °FRain. Fog.20 mph93%29.65 "Hg5 mi
4:40 pm44 °FLight rain. Fog.20 mph93%29.64 "Hg6 mi
3:52 pm45 °FLight rain. Mostly cloudy.22 mph90%29.61 "Hg9 mi
2:52 pm45 °FLight rain. Low clouds.20 mph93%29.58 "Hg7 mi
1:52 pm46 °FLight rain. Low clouds.17 mph89%29.56 "Hg10 mi
12:52 pm46 °FLight rain. Fog.20 mph89%29.53 "Hg5 mi
12:12 pm48 °FLight rain. Mostly cloudy.21 mph89%29.53 "Hg7 mi
11:52 am48 °FLight rain. Fog.18 mph93%29.52 "Hg6 mi
10:52 am49 °FLight rain. Mostly cloudy.13 mph90%29.52 "Hg8 mi
10:30 am49 °FRain. Fog.14 mph90%29.51 "Hg6 mi
9:52 am49 °FLow clouds.16 mph90%29.48 "Hg10 mi
8:52 am49 °FMostly cloudy.20 mph93%29.45 "Hg10 mi
8:23 am49 °FCloudy.17 mph93%29.45 "Hg10 mi
8:03 am49 °FLight rain. Mostly cloudy.13 mph93%29.44 "Hg10 mi
7:52 am49 °FLight rain. Mostly cloudy.15 mph93%29.44 "Hg10 mi
7:36 am49 °FLight rain. Cloudy.15 mph93%29.44 "Hg10 mi
6:52 am50 °FLight rain. Mostly cloudy.13 mph93%29.41 "Hg7 mi
5:52 am50 °FLight rain. Mostly cloudy.15 mph93%29.40 "Hg8 mi
5:02 am50 °FMostly cloudy.16 mph93%29.41 "Hg10 mi
4:52 am50 °FMostly cloudy.15 mph93%29.40 "Hg10 mi
4:29 am50 °FMostly cloudy.14 mph93%29.41 "Hg10 mi
3:52 am50 °FMostly cloudy.12 mph93%29.40 "Hg10 mi
3:02 am50 °FMostly cloudy.8 mph93%29.43 "Hg10 mi
2:52 am51 °FOvercast.8 mph89%29.42 "Hg10 mi
2:29 am51 °FOvercast.6 mph92%29.44 "Hg10 mi
Weather by CustomWeather, © 2017

See weather overviewHow to use our weather pages